User: anonymous   Login
Location: Zagreb
(45.8000°N, 16.0000°E)
Time: 00:46:36
(UTC+01:00)
Language:

Courier 1B Rocket - Orbit

View from above orbital plane
View from above orbital plane
View from above satellite
View from above satellite

Ground track
Ground track

The orbit data is extracted from the following two-line orbital elements,

1    59U 60013B   20025.59111724 +.00000121 +00000-0 +41540-4 0  9995
2    59 028.2468 237.1931 0189219 158.7358 202.1173 13.52973852927109
Epoch (UTC): 25 January 2020 14:11:12
Eccentricity: 0.0189219
inclination: 28.2468°
perigee height: 920 km
apogee height: 1202 km
right ascension of ascending node: 237.1931°
argument of perigee: 158.7358°
revolutions per day: 13.52973852
mean anomaly at epoch: 202.1173°
orbit number at epoch: 92710

The dashed part of the orbit path shows where the satellite is in the earth's shadow,  

DLR